This is the latest recevied weather packets stored in our database for station/object JA0ZJX-13. If no packets are shown the sender has not sent any weather packets the latest 1 day(s).
| Time | Temp. | Humidity | Pressure | Rain* | Wind** | Luminosity | Snow |
|---|---|---|---|---|---|---|---|
| 1778044407 | 20° C | 59% | 1018.2 hPa | 0 mm | - | 554 W/m² | - |
| 1778042620 | 20° C | 60% | 1018.5 hPa | 0 mm | - | 761 W/m² | - |
| 1778042007 | 20° C | 59% | 1018.6 hPa | 0 mm | - | 464 W/m² | - |
| 1778041417 | 20.56° C | 59% | 1018.8 hPa | 0 mm | - | 933 W/m² | - |
| 1778040806 | 20° C | 59% | 1018.9 hPa | 0 mm | - | 747 W/m² | - |
| 1778040219 | 20° C | 59% | 1019 hPa | 0 mm | - | 680 W/m² | - |
| 1778039017 | 19.44° C | 60% | 1019.2 hPa | 0 mm | - | 487 W/m² | - |
| 1778037820 | 19.44° C | 59% | 1019.8 hPa | 0 mm | - | 1035 W/m² | - |
| 1778037209 | 19.44° C | 60% | 1019.8 hPa | 0 mm | - | 645 W/m² | - |
| 1778036619 | 19.44° C | 59% | 1020 hPa | 0 mm | - | 571 W/m² | - |
| 1778036013 | 19.44° C | 58% | 1020.1 hPa | 0 mm | - | 754 W/m² | - |
| 1778034809 | 19.44° C | 59% | 1020.4 hPa | 0 mm | - | 782 W/m² | - |
| 1778033611 | 18.89° C | 61% | 1020.5 hPa | 0 mm | - | 446 W/m² | - |
| 1778033021 | 18.33° C | 62% | 1019.5 hPa | 0 mm | - | 462 W/m² | - |
| 1778032410 | 17.78° C | 62% | 1019.7 hPa | 0 mm | - | 494 W/m² | - |
| 1778031212 | 17.78° C | 61% | 1020.1 hPa | 0 mm | - | 761 W/m² | - |
| 1778030621 | 17.78° C | 62% | 1020.4 hPa | 0 mm | - | 506 W/m² | - |
| 1778030009 | 17.22° C | 63% | 1020.5 hPa | 0 mm | - | 900 W/m² | - |
| 1778028809 | 17.22° C | 62% | 1020.7 hPa | 0 mm | - | 487 W/m² | - |
| 1778028219 | 17.22° C | 61% | 1020.8 hPa | 0 mm | - | 529 W/m² | - |
| 1778026407 | 17.22° C | 62% | 1020.6 hPa | 0 mm | - | 656 W/m² | - |
| 1778025817 | 16.67° C | 63% | 1020.7 hPa | 0 mm | - | 680 W/m² | - |
| 1778023417 | 16.67° C | 64% | 1021.3 hPa | 0 mm | - | 476 W/m² | - |
| 1778022221 | 16.11° C | 64% | 1021.5 hPa | 0 mm | - | 350 W/m² | - |
* Rain latest hour (hover to see other rain measurements)
** Current wind speed in m/s (hover to see current wind gust speed)